Lapse_Rate
5.8 5.7 5.5 5.3 5.1 5.1 5.2 5.2 5.1 5.1 5.2 5.4 5.4 5.3 5.3 5.3 5.3 5.3 5.3 5.2 5.1 5.1
5.8 5.8 5.7 5.4 5.2 5.2 5.1 5.1 5.0 5.0 5.2 5.3 5.3 5.2 5.2 5.2 5.3 5.3 5.3 5.3 5.2 5.0
5.6 5.6 5.5 5.4 5.1 4.9 5.0 5.0 4.9 4.9 5.0 5.1 5.1 5.1 5.1 5.1 5.1 5.1 5.1 5.0 4.9 4.8
5.4 5.4 5.4 5.1 4.9 4.8 5.0 4.9 4.9 4.9 4.9 4.9 4.9 4.8 4.9 4.9 4.9 4.9 4.9 4.9 5.0 4.9
5.0 5.0 5.1 5.0 4.8 4.8 5.0 4.9 4.8 4.8 4.8 4.7 4.8 4.8 4.9 5.0 5.0 4.9 4.9 4.8 4.7 4.6
5.0 5.0 4.9 4.9 4.8 4.9 5.0 4.9 5.0 4.9 4.8 4.8 4.8 4.9 5.0 5.1 5.1 5.0 4.9 4.8 4.8 4.8
4.8 4.8 4.9 5.0 5.0 5.0 5.0 5.0 4.9 4.9 4.9 4.9 5.0 5.1 5.2 5.2 5.2 5.3 5.2 5.1 5.0 5.0
5.0 5.1 5.1 5.1 5.2 5.2 5.2 5.3 5.2 5.1 5.1 5.2 5.2 5.3 5.3 5.4 5.4 5.4 5.2 5.2 5.2 5.2
5.5 5.5 5.6 5.6 5.6 5.6 5.6 5.5 5.5 5.4 5.4 5.4 5.4 5.4 5.4 5.3 5.3 5.3 5.3 5.4 5.3 5.3
5.5 5.5 5.6 5.5 5.5 5.5 5.6 5.6 5.5 5.5 5.5 5.5 5.5 5.5 5.5 5.4 5.4 5.2 5.2 5.3 5.3 5.4
5.4 5.5 5.5 5.5 5.5 5.6 5.7 5.7 5.7 5.6 5.2 5.2 5.4 5.7 5.6 5.5 5.4 5.3 5.3 5.2 5.1 5.2
5.2 5.3 5.5 5.7 5.8 5.8 5.8 5.7 5.5 5.3 5.3 5.1 4.9 4.9 5.1 5.2 5.2 5.3 5.3 5.3 5.2 5.0
4.7 4.7 4.8 4.9 5.0 5.1 5.0 5.0 5.1 5.1 5.1 5.1 5.2 5.2 5.2 5.2 5.2 5.3 5.3 5.1 5.1 4.9
4.7 4.7 4.7 4.8 4.9 4.9 5.0 5.0 4.9 4.9 5.0 5.0 5.0 5.0 5.0 5.0 5.1 5.2 5.3 5.3 5.3 5.3
Wind_Speed
8 6 6 6 5 4 4 4 4 4 4 4 5 5 5 4 5 5 5 7 5 4
9 9 8 8 7 6 6 4 5 5 4 4 5 5 5 5 6 6 6 6 6 6
10 10 8 7 9 8 7 7 6 6 5 5 6 6 6 6 6 7 6 5 7 7
10 9 8 9 9 9 8 8 7 7 6 6 7 7 7 8 7 8 8 8 8 9
9 8 9 9 9 9 9 8 8 7 8 8 8 8 8 9 8 9 9 9 9 10
7 8 9 9 8 8 8 8 8 8 8 8 8 8 9 9 10 10 10 10 10 10
6 6 7 7 7 8 7 8 8 8 9 9 9 9 9 10 10 11 10 10 11 11
9 8 7 6 6 6 6 7 7 8 8 9 8 8 9 10 11 11 12 12 12 12
10 10 10 9 8 7 6 6 6 7 8 9 7 9 11 12 11 12 12 12 13 12
10 10 9 9 9 8 8 7 7 8 8 9 9 9 13 14 11 12 13 13 12 11
8 8 8 8 8 8 7 8 7 7 8 9 8 12 14 14 11 10 11 11 13 12
8 8 8 8 8 8 7 8 7 7 9 10 10 11 12 10 9 9 8 7 8 9
9 9 10 10 10 9 9 9 8 10 10 12 12 12 13 13 9 10 8 9 11 14
10 10 10 11 10 10 11 11 11 12 12 13 13 13 15 16 11 9 8 8 9 9
Wind_Direction
216 223 228 237 242 244 241 237 228 234 240 250 251 252 250 253 254 251 249 256 254 261
226 222 223 226 233 238 236 240 237 237 245 254 256 253 255 256 255 250 251 251 248 248
233 230 229 233 235 235 239 236 238 241 241 249 252 249 245 250 250 252 253 253 251 247
243 233 229 234 242 241 241 239 241 244 248 248 252 251 251 253 254 251 256 249 249 251
249 237 236 240 246 249 247 246 252 251 253 257 256 259 257 261 252 251 252 254 252 254
271 255 253 254 254 252 253 256 255 255 258 263 263 264 260 260 262 259 256 255 252 252
353 319 298 293 285 277 269 265 262 259 262 262 264 262 263 262 263 262 262 260 255 253
27 24 15 1 341 323 304 291 286 278 269 265 263 262 262 260 262 263 264 259 254 251
29 30 28 24 19 11 354 335 312 294 286 283 278 274 260 261 268 264 260 261 261 255
15 16 12 4 1 358 348 338 331 322 315 301 295 298 290 283 275 273 267 265 266 267
6 2 357 353 350 345 340 337 330 322 315 307 303 300 296 291 284 280 272 270 271 268
346 338 335 332 329 322 316 313 310 307 307 307 306 299 295 296 292 282 278 278 281 280
325 321 318 316 312 307 300 297 300 295 289 287 288 291 288 279 289 286 287 289 284 268
307 305 301 302 302 302 300 296 295 295 293 292 288 289 284 279 282 282 271 271 280 277